GW0135 Weather Reports


time (UTC)temp
C
wind
direction
speed
KPH
gust
KPH
rain 1hr
cm
rain 24hr
cm
rain mn
cm
humidity
%
barometer
mb
20260504030755 6 60 1.6 1.6 0.00 0.00 0.00 77 977.3
20260504025255 6 90 1.6 1.6 0.00 0.00 0.00 77 977.3
20260504024255 7 82 0.0 0.0 0.00 0.00 0.00 75 977.0
20260504023755 7 90 0.0 0.0 0.00 0.00 0.00 73 977.3
20260504022756 8 160 0.0 0.0 0.00 0.00 0.00 69 977.3
20260504020256 10 159 3.2 3.2 0.00 0.00 0.00 60 977.3
20260504015256 10 151 4.8 4.8 0.00 0.00 0.00 58 977.3
20260504014256 10 166 3.2 3.2 0.00 0.00 0.00 56 977.3
20260504011755 11 173 3.2 3.2 0.00 0.00 0.00 53 977.3
20260504010756 11 175 1.6 1.6 0.00 0.00 0.00 52 977.3
20260504010255 11 163 3.2 3.2 0.00 0.00 0.00 52 977.3
20260504004756 12 170 3.2 3.2 0.00 0.00 0.00 50 977.0
20260504003255 12 194 3.2 3.2 0.00 0.00 0.00 49 977.0
20260504001256 13 212 3.2 3.2 0.00 0.00 0.00 48 977.0
20260504000256 13 171 3.2 3.2 0.00 0.00 0.00 47 977.0
20260503235256 13 188 3.2 3.2 0.00 0.00 0.00 47 977.3
20260503234255 13 146 4.8 4.8 0.00 0.00 0.00 46 977.3
20260503233255 13 238 4.8 4.8 0.00 0.00 0.00 45 977.3
20260503232756 13 214 3.2 3.2 0.00 0.00 0.00 46 977.3
20260503231756 13 213 4.8 4.8 0.00 0.00 0.00 44 977.0
20260503230255 13 168 3.2 3.2 0.00 0.00 0.00 46 977.0
20260503224755 14 192 4.8 4.8 0.00 0.00 0.00 44 977.0
20260503223755 14 164 4.8 4.8 0.00 0.00 0.00 44 977.0
20260503222256 14 161 4.8 4.8 0.00 0.00 0.00 42 977.0
20260503221756 15 221 4.8 4.8 0.00 0.00 0.00 42 977.0
20260503221255 15 248 4.8 4.8 0.00 0.00 0.00 40 977.3
20260503215256 15 257 6.4 6.4 0.00 0.00 0.00 40 977.0
20260503214255 16 270 6.4 6.4 0.00 0.00 0.00 41 977.0
20260503212756 15 236 6.4 6.4 0.00 0.00 0.00 40 977.0
20260503211255 14 185 6.4 6.4 0.00 0.00 0.00 42 977.3
20260503210256 15 255 8.0 8.0 0.00 0.00 0.00 39 977.0
20260503202255 15 253 6.4 6.4 0.00 0.00 0.00 40 977.3
20260503201756 13 230 6.4 6.4 0.00 0.00 0.00 42 977.3
20260503200755 15 248 6.4 6.4 0.00 0.00 0.00 41 977.7
20260503191756 13 252 6.4 6.4 0.00 0.00 0.00 42 978.3
20260503190256 13 135 3.2 3.2 0.00 0.00 0.00 44 978.3
20260503184756 13 265 4.8 4.8 0.00 0.00 0.00 44 978.7
20260503183756 13 303 3.2 3.2 0.00 0.00 0.00 44 978.7
20260503181756 13 270 4.8 4.8 0.00 0.00 0.00 44 979.0
20260503181256 12 236 4.8 4.8 0.00 0.00 0.00 45 979.0
20260503180256 12 267 4.8 4.8 0.00 0.00 0.00 46 979.0
20260503175256 12 309 4.8 4.8 0.00 0.00 0.00 46 979.3
20260503174256 13 249 6.4 6.4 0.00 0.00 0.00 43 979.3
20260503173756 13 225 4.8 4.8 0.00 0.00 0.00 45 979.3
20260503172757 12 180 4.8 4.8 0.00 0.00 0.00 46 979.7
20260503171756 13 166 4.8 4.8 0.00 0.00 0.00 46 979.7